QPF
0.00 0.00 0.00 0.00 0.00 0.00 0.00 0.00 0.00 0.00 0.00 0.00 0.00 0.00 0.00 0.00 0.00 0.00 0.00 0.00 0.00 0.00 0.00 0.00 0.00 0.00 0.00 0.00 0.00 0.00 0.00 0.00 0.00 0.00 0.00 0.01 0.01 0.00 0.00 0.00 0.00 0.00 0.00
0.00 0.00 0.00 0.00 0.00 0.00 0.00 0.00 0.00 0.00 0.00 0.00 0.00 0.00 0.00 0.00 0.00 0.00 0.00 0.00 0.00 0.00 0.00 0.00 0.00 0.00 0.00 0.00 0.00 0.00 0.00 0.00 0.00 0.00 0.00 0.00 0.00 0.00 0.00 0.00 0.00 0.00 0.00
0.00 0.00 0.00 0.00 0.00 0.00 0.00 0.00 0.00 0.00 0.00 0.00 0.00 0.00 0.00 0.00 0.00 0.00 0.00 0.00 0.00 0.00 0.00 0.00 0.00 0.00 0.00 0.00 0.00 0.00 0.00 0.00 0.00 0.00 0.00 0.00 0.00 0.00 0.00 0.00 0.00 0.00 0.00
0.00 0.00 0.00 0.00 0.00 0.00 0.00 0.00 0.00 0.00 0.00 0.00 0.00 0.00 0.00 0.00 0.00 0.00 0.00 0.00 0.01 0.00 0.00 0.00 0.00 0.00 0.00 0.00 0.00 0.00 0.00 0.00 0.00 0.00 0.00 0.00 0.00 0.00 0.00 0.00 0.00 0.00 0.00
0.02 0.00 0.00 0.00 0.00 0.00 0.00 0.00 0.00 0.00 0.00 0.00 0.00 0.00 0.00 0.00 0.00 0.00 0.00 0.01 0.05 0.02 0.00 0.00 0.00 0.00 0.00 0.00 0.00 0.00 0.00 0.00 0.00 0.00 0.00 0.00 0.00 0.00 0.00 0.00 0.00 0.00 0.00
0.00 0.00 0.00 0.00 0.00 0.00 0.00 0.00 0.00 0.00 0.00 0.00 0.00 0.00 0.00 0.00 0.00 0.00 0.00 0.04 0.13 0.04 0.01 0.00 0.00 0.00 0.00 0.00 0.00 0.00 0.00 0.00 0.00 0.00 0.00 0.00 0.00 0.00 0.00 0.00 0.00 0.00 0.00
0.00 0.00 0.00 0.00 0.00 0.00 0.00 0.00 0.00 0.00 0.00 0.00 0.00 0.00 0.00 0.17 0.17 0.00 0.00 0.10 0.09 0.01 0.00 0.00 0.00 0.00 0.00 0.00 0.00 0.00 0.00 0.00 0.00 0.00 0.00 0.00 0.00 0.00 0.00 0.00 0.00 0.00 0.00
0.01 0.00 0.00 0.00 0.00 0.01 0.09 0.02 0.04 0.05 0.03 0.03 0.01 0.00 0.04 0.42 0.11 0.03 0.00 0.08 0.03 0.01 0.00 0.00 0.00 0.01 0.00 0.00 0.00 0.00 0.00 0.00 0.00 0.00 0.00 0.00 0.00 0.00 0.00 0.00 0.00 0.00 0.00
0.04 0.02 0.00 0.00 0.01 0.02 0.04 0.08 0.06 0.12 0.13 0.25 0.14 0.14 0.24 0.22 0.08 0.05 0.02 0.08 0.02 0.00 0.00 0.00 0.01 0.01 0.00 0.00 0.00 0.00 0.00 0.00 0.00 0.00 0.00 0.00 0.00 0.00 0.00 0.00 0.00 0.00 0.00
0.00 0.00 0.00 0.00 0.00 0.00 0.02 0.08 0.12 0.30 0.38 0.43 0.40 0.39 0.26 0.07 0.14 0.08 0.11 0.06 0.01 0.00 0.00 0.00 0.01 0.01 0.00 0.00 0.00 0.00 0.00 0.00 0.00 0.00 0.00 0.00 0.00 0.00 0.00 0.00 0.00 0.00 0.00
0.00 0.00 0.00 0.00 0.00 0.00 0.00 0.01 0.09 0.16 0.20 0.25 0.32 0.29 0.20 0.13 0.23 0.25 0.22 0.08 0.01 0.00 0.00 0.00 0.00 0.01 0.00 0.00 0.00 0.00 0.00 0.00 0.00 0.00 0.00 0.00 0.00 0.00 0.00 0.00 0.00 0.00 0.00
0.00 0.00 0.00 0.00 0.00 0.00 0.02 0.09 0.13 0.15 0.20 0.33 0.31 0.32 0.31 0.36 0.35 0.29 0.03 0.02 0.04 0.02 0.00 0.00 0.00 0.00 0.00 0.00 0.00 0.00 0.00 0.00 0.00 0.00 0.00 0.00 0.00 0.00 0.00 0.00 0.00 0.00 0.00
0.00 0.00 0.00 0.00 0.00 0.02 0.07 0.04 0.03 0.01 0.03 0.09 0.12 0.18 0.32 0.31 0.20 0.09 0.05 0.06 0.06 0.04 0.00 0.00 0.00 0.00 0.00 0.00 0.00 0.00 0.00 0.00 0.00 0.00 0.00 0.00 0.00 0.00 0.00 0.00 0.00 0.00 0.00
0.00 0.00 0.00 0.00 0.00 0.02 0.04 0.09 0.05 0.08 0.09 0.23 0.34 0.30 0.20 0.12 0.07 0.07 0.04 0.02 0.03 0.03 0.01 0.00 0.01 0.00 0.00 0.00 0.00 0.00 0.00 0.00 0.00 0.00 0.00 0.00 0.00 0.00 0.00 0.00 0.00 0.00 0.00
0.00 0.00 0.00 0.00 0.00 0.02 0.02 0.02 0.03 0.06 0.09 0.26 0.34 0.16 0.11 0.08 0.04 0.01 0.01 0.00 0.01 0.02 0.01 0.03 0.04 0.01 0.01 0.00 0.00 0.00 0.00 0.00 0.00 0.00 0.00 0.00 0.00 0.00 0.00 0.00 0.00 0.00 0.00
0.00 0.00 0.00 0.00 0.00 0.00 0.00 0.02 0.03 0.02 0.02 0.05 0.11 0.09 0.07 0.08 0.02 0.00 0.00 0.00 0.01 0.02 0.00 0.04 0.01 0.00 0.00 0.00 0.00 0.00 0.00 0.00 0.00 0.00 0.00 0.00 0.00 0.00 0.00 0.00 0.00 0.00 0.00
0.00 0.00 0.00 0.00 0.01 0.01 0.01 0.01 0.01 0.05 0.02 0.01 0.01 0.02 0.02 0.04 0.03 0.01 0.00 0.00 0.00 0.00 0.00 0.00 0.00 0.00 0.00 0.00 0.00 0.00 0.00 0.00 0.00 0.00 0.00 0.00 0.00 0.00 0.00 0.00 0.00 0.00 0.00
0.00 0.00 0.00 0.00 0.01 0.01 0.01 0.00 0.00 0.00 0.00 0.00 0.00 0.00 0.00 0.00 0.00 0.00 0.00 0.00 0.00 0.00 0.00 0.00 0.00 0.01 0.02 0.01 0.00 0.00 0.00 0.00 0.00 0.00 0.00 0.00 0.00 0.00 0.00 0.00 0.00 0.00 0.00
0.00 0.00 0.00 0.00 0.00 0.01 0.00 0.00 0.00 0.01 0.03 0.00 0.00 0.00 0.00 0.00 0.00 0.00 0.00 0.00 0.00 0.00 0.00 0.00 0.01 0.02 0.04 0.02 0.02 0.01 0.00 0.00 0.00 0.00 0.00 0.00 0.00 0.00 0.00 0.00 0.00 0.00 0.00
0.00 0.00 0.00 0.00 0.00 0.00 0.01 0.01 0.00 0.01 0.01 0.01 0.00 0.00 0.00 0.00 0.00 0.00 0.00 0.00 0.00 0.00 0.00 0.00 0.00 0.00 0.01 0.01 0.02 0.01 0.00 0.00 0.00 0.00 0.00 0.00 0.00 0.00 0.00 0.00 0.00 0.00 0.00
0.00 0.00 0.00 0.00 0.00 0.00 0.00 0.01 0.01 0.02 0.02 0.01 0.00 0.00 0.00 0.00 0.00 0.00 0.00 0.00 0.00 0.00 0.00 0.00 0.00 0.00 0.00 0.01 0.02 0.01 0.01 0.00 0.00 0.00 0.00 0.00 0.00 0.00 0.00 0.00 0.00 0.00 0.00
0.00 0.00 0.00 0.00 0.00 0.00 0.00 0.00 0.00 0.00 0.00 0.01 0.00 0.00 0.00 0.00 0.00 0.00 0.00 0.00 0.00 0.00 0.00 0.00 0.00 0.00 0.00 0.00 0.00 0.00 0.00 0.00 0.00 0.00 0.00 0.00 0.00 0.00 0.00 0.00 0.00 0.00 0.00
0.00 0.00 0.01 0.01 0.01 0.01 0.00 0.01 0.01 0.01 0.01 0.00 0.00 0.00 0.00 0.00 0.00 0.00 0.00 0.00 0.00 0.00 0.00 0.00 0.00 0.00 0.00 0.00 0.00 0.00 0.00 0.00 0.00 0.00 0.00 0.00 0.00 0.00 0.00 0.00 0.00 0.00 0.00
0.00 0.00 0.00 0.01 0.04 0.05 0.05 0.03 0.02 0.02 0.02 0.01 0.00 0.00 0.00 0.00 0.00 0.00 0.00 0.00 0.00 0.00 0.00 0.00 0.00 0.00 0.00 0.00 0.00 0.00 0.00 0.01 0.01 0.00 0.00 0.00 0.00 0.00 0.00 0.00 0.00 0.00 0.00
0.00 0.00 0.00 0.00 0.04 0.06 0.07 0.05 0.05 0.03 0.02 0.02 0.02 0.01 0.00 0.00 0.00 0.00 0.00 0.00 0.00 0.00 0.00 0.00 0.00 0.00 0.00 0.00 0.00 0.00 0.00 0.01 0.00 0.00 0.00 0.00 0.00 0.00 0.00 0.00 0.00 0.00 0.00
0.00 0.00 0.00 0.01 0.02 0.02 0.04 0.05 0.04 0.03 0.04 0.01 0.00 0.00 0.00 0.01 0.00 0.00 0.00 0.00 0.00 0.00 0.00 0.00 0.00 0.00 0.00 0.00 0.00 0.00 0.00 0.00 0.00 0.00 0.00 0.00 0.00 0.00 0.00 0.00 0.00 0.00 0.00
MSLP
1012.47 1012.94 1013.27 1013.46 1013.92 1014.29 1014.51 1014.53 1014.63 1014.72 1014.78 1014.84 1014.73 1014.60 1014.56 1014.60 1014.79 1015.21 1015.62 1016.04 1016.24 1016.43 1016.62 1016.83 1017.05 1017.30 1017.30 1017.31 1017.35 1017.40 1017.56 1017.60 1017.78 1018.26 1018.45 1018.76 1019.00 1019.32 1019.36 1019.46 1019.23 1018.86 1018.51
1012.05 1012.25 1012.59 1012.96 1013.29 1013.56 1013.71 1013.78 1013.97 1014.17 1014.33 1014.33 1014.38 1014.40 1014.44 1014.38 1014.57 1014.87 1015.25 1015.62 1015.90 1016.15 1016.53 1016.78 1017.03 1017.19 1017.31 1017.37 1017.36 1017.46 1017.68 1017.68 1017.73 1018.17 1018.80 1019.09 1019.29 1019.66 1019.68 1019.79 1019.39 1019.10 1018.65
1011.43 1011.73 1012.08 1012.34 1012.56 1012.66 1012.59 1012.95 1013.20 1013.32 1013.59 1014.04 1014.02 1014.03 1014.05 1014.07 1014.29 1014.58 1014.83 1015.27 1015.63 1015.79 1016.06 1016.67 1017.00 1017.18 1017.34 1017.54 1017.63 1017.63 1017.89 1017.83 1017.85 1018.16 1018.80 1019.23 1019.52 1019.71 1019.96 1019.82 1019.43 1018.98 1018.68
1011.69 1011.74 1011.74 1011.87 1012.16 1012.11 1012.05 1012.03 1012.22 1012.34 1012.78 1012.98 1013.50 1013.64 1013.60 1013.71 1013.96 1014.23 1014.48 1014.96 1015.33 1015.41 1015.90 1016.45 1016.87 1017.11 1017.24 1017.60 1017.74 1017.82 1018.10 1018.10 1018.28 1018.70 1019.06 1019.35 1019.53 1020.03 1020.10 1019.78 1019.42 1019.15 1018.76
1012.06 1011.91 1011.79 1011.91 1011.73 1011.44 1011.42 1011.21 1011.32 1011.69 1011.97 1012.34 1012.58 1013.07 1013.30 1013.44 1013.55 1013.69 1014.02 1014.46 1015.03 1015.40 1016.01 1016.47 1016.75 1016.93 1017.29 1017.58 1017.70 1018.01 1018.21 1018.42 1018.66 1018.99 1019.35 1019.58 1019.60 1019.79 1020.01 1019.94 1019.73 1019.58 1018.94
1012.19 1011.97 1011.77 1011.80 1011.63 1011.13 1010.73 1010.80 1010.91 1011.12 1011.19 1011.48 1011.66 1012.02 1012.60 1012.80 1013.00 1013.01 1013.25 1013.79 1014.40 1015.11 1015.88 1016.33 1016.72 1017.10 1017.51 1017.82 1017.80 1017.96 1018.17 1018.54 1018.79 1019.13 1019.51 1019.38 1019.63 1019.77 1020.11 1020.29 1020.02 1019.86 1019.67
1012.40 1012.37 1011.86 1011.65 1011.16 1010.50 1010.28 1010.48 1010.46 1010.64 1010.92 1010.91 1010.93 1011.10 1011.59 1012.02 1012.03 1012.28 1012.69 1013.34 1014.06 1014.76 1015.45 1016.10 1016.62 1017.12 1017.44 1017.86 1018.18 1018.32 1018.39 1018.65 1018.82 1019.22 1019.33 1019.65 1019.64 1019.79 1019.97 1020.41 1020.52 1020.24 1020.13
1012.53 1012.32 1012.03 1011.34 1010.88 1010.30 1010.07 1010.21 1010.56 1011.02 1010.86 1010.83 1010.78 1010.60 1010.76 1011.22 1011.38 1011.80 1012.46 1013.06 1013.65 1014.34 1014.80 1015.67 1016.12 1017.00 1017.53 1017.99 1018.48 1018.74 1018.89 1019.02 1019.19 1019.39 1019.53 1019.73 1019.76 1019.77 1019.97 1020.40 1020.50 1020.41 1020.37
1012.99 1012.62 1012.03 1011.17 1011.04 1010.77 1010.20 1010.73 1010.68 1010.30 1010.59 1011.25 1011.21 1010.09 1010.22 1010.57 1011.00 1011.88 1012.68 1013.27 1013.82 1014.34 1014.69 1015.60 1016.03 1016.81 1017.41 1017.99 1018.48 1018.88 1019.20 1019.40 1019.43 1019.46 1019.80 1019.88 1020.04 1020.16 1020.20 1020.35 1020.68 1020.67 1020.71
1013.09 1012.72 1012.00 1011.37 1011.01 1010.33 1010.32 1010.57 1010.60 1009.82 1009.46 1010.27 1011.27 1011.47 1009.65 1009.85 1010.66 1011.98 1012.47 1013.11 1013.81 1014.60 1014.80 1015.50 1016.07 1016.52 1017.51 1017.91 1018.33 1018.73 1019.19 1019.62 1019.73 1019.86 1020.28 1020.38 1020.32 1020.50 1020.51 1020.60 1020.92 1020.93 1021.08
1012.28 1012.04 1011.64 1010.91 1010.22 1009.99 1010.07 1010.01 1010.13 1009.18 1009.53 1010.85 1010.06 1011.50 1009.85 1009.62 1010.75 1011.54 1011.75 1011.65 1012.87 1014.10 1014.35 1015.22 1015.97 1016.56 1017.25 1017.76 1018.21 1018.62 1019.01 1019.47 1019.91 1020.17 1020.41 1020.73 1020.78 1020.65 1020.68 1020.94 1021.18 1021.25 1021.34
1012.17 1011.98 1011.47 1010.95 1010.46 1010.17 1009.89 1009.63 1009.15 1009.40 1009.15 1010.57 1009.50 1008.64 1010.75 1009.52 1010.10 1011.01 1011.23 1011.66 1011.96 1013.05 1013.61 1014.58 1015.30 1016.34 1016.94 1017.74 1018.26 1018.58 1018.92 1019.60 1019.90 1020.29 1020.58 1020.85 1021.08 1021.12 1020.99 1021.05 1021.46 1021.64 1021.75
1012.61 1012.40 1011.66 1011.05 1010.57 1010.28 1009.80 1009.53 1009.16 1008.76 1009.41 1010.49 1010.74 1009.95 1009.25 1009.66 1010.22 1010.88 1011.48 1012.15 1012.02 1012.45 1012.73 1013.84 1014.76 1015.99 1016.97 1017.45 1018.07 1018.44 1018.93 1019.48 1019.97 1020.13 1020.55 1020.97 1021.33 1021.43 1021.39 1021.44 1021.80 1021.92 1022.04
1013.31 1012.80 1012.18 1011.61 1010.78 1010.59 1010.36 1010.21 1010.06 1010.23 1010.33 1009.83 1008.17 1008.60 1009.18 1010.32 1010.84 1011.26 1011.68 1012.27 1012.28 1012.57 1013.02 1014.02 1014.95 1015.72 1016.65 1017.21 1018.00 1018.48 1018.75 1019.13 1019.50 1019.91 1020.38 1020.98 1021.42 1021.67 1021.53 1021.64 1021.77 1022.11 1022.29
1013.80 1013.15 1012.64 1012.08 1011.51 1011.13 1011.56 1011.63 1011.62 1011.56 1011.40 1010.65 1010.79 1010.96 1011.05 1011.25 1011.44 1011.46 1011.36 1011.57 1011.99 1012.33 1013.29 1014.20 1015.03 1015.80 1016.49 1016.87 1017.55 1017.93 1018.40 1018.93 1019.34 1019.75 1020.23 1020.75 1021.23 1021.59 1021.88 1021.86 1022.05 1022.14 1022.36
1014.34 1013.60 1013.06 1012.57 1012.13 1011.76 1011.71 1011.86 1012.10 1012.13 1011.79 1011.72 1011.85 1011.93 1012.05 1012.04 1011.44 1011.44 1011.21 1011.23 1011.59 1012.19 1013.29 1013.89 1014.38 1015.09 1015.60 1016.07 1016.61 1017.43 1017.94 1018.46 1019.01 1019.54 1019.91 1020.39 1020.85 1021.29 1021.87 1022.11 1022.12 1022.21 1022.52
1014.94 1014.28 1013.66 1013.00 1012.53 1012.19 1011.80 1011.77 1012.09 1012.37 1012.13 1012.26 1012.27 1012.54 1012.51 1011.97 1011.62 1011.44 1011.17 1011.11 1011.62 1012.26 1012.66 1013.21 1013.69 1014.31 1014.88 1015.42 1015.88 1016.68 1017.17 1017.57 1018.36 1019.06 1019.54 1020.06 1020.52 1021.10 1021.63 1021.93 1022.08 1022.21 1022.50
1014.78 1014.31 1013.95 1013.43 1012.89 1012.61 1012.20 1011.75 1011.68 1012.04 1012.32 1012.63 1012.48 1012.43 1012.23 1011.92 1011.59 1011.48 1011.44 1011.62 1012.47 1012.49 1012.47 1012.95 1013.25 1013.83 1014.20 1014.78 1015.30 1015.88 1016.71 1017.19 1017.86 1018.55 1019.27 1019.73 1020.17 1020.66 1021.23 1021.64 1021.90 1021.93 1022.30
1015.06 1014.60 1014.12 1013.71 1013.43 1013.15 1012.67 1012.12 1011.85 1012.12 1012.53 1012.67 1012.58 1012.36 1012.31 1012.24 1011.87 1011.72 1011.54 1011.59 1012.28 1012.59 1012.68 1012.96 1013.19 1013.62 1014.04 1014.72 1014.98 1015.49 1015.96 1016.66 1017.23 1017.93 1018.78 1019.28 1019.75 1020.17 1020.72 1021.22 1021.53 1021.79 1022.09
1015.19 1014.99 1014.62 1014.12 1013.73 1013.44 1013.11 1012.79 1012.52 1012.49 1012.89 1013.20 1013.42 1013.45 1013.15 1012.67 1012.51 1012.40 1012.21 1012.22 1012.34 1012.52 1012.75 1012.75 1013.00 1013.22 1013.69 1014.13 1014.73 1015.20 1015.63 1016.21 1016.88 1017.33 1018.07 1018.58 1019.18 1019.67 1020.06 1020.55 1020.98 1021.44 1021.75
1015.50 1015.19 1014.87 1014.50 1014.15 1013.99 1013.75 1013.41 1013.18 1012.91 1013.01 1013.25 1013.61 1013.98 1013.64 1013.03 1013.02 1013.15 1012.88 1012.82 1012.91 1012.68 1012.57 1012.65 1012.98 1013.42 1013.45 1014.04 1014.40 1014.79 1015.16 1015.50 1016.13 1016.76 1017.47 1018.00 1018.43 1018.95 1019.45 1019.98 1020.48 1020.96 1021.35
1015.98 1015.75 1015.25 1015.00 1014.83 1014.63 1014.43 1014.21 1013.87 1013.66 1013.59 1013.78 1013.98 1013.90 1013.85 1013.62 1013.57 1013.59 1013.54 1013.47 1013.51 1013.49 1013.50 1013.63 1013.45 1013.21 1013.04 1013.52 1013.93 1014.12 1014.35 1014.78 1015.41 1016.06 1016.91 1017.32 1017.84 1018.43 1019.02 1019.44 1019.92 1020.45 1020.85
1016.22 1016.01 1015.74 1015.47 1015.25 1015.09 1014.94 1014.95 1014.66 1014.41 1014.30 1014.44 1014.55 1014.46 1014.44 1014.46 1014.39 1014.45 1014.58 1014.62 1014.40 1014.32 1014.22 1014.12 1013.85 1013.42 1013.46 1013.13 1013.16 1013.40 1013.58 1013.90 1014.53 1015.18 1016.22 1016.72 1017.14 1017.67 1018.05 1018.53 1019.19 1019.77 1020.23
1016.69 1016.36 1016.09 1015.80 1015.69 1015.51 1015.28 1015.32 1015.26 1015.13 1015.18 1015.25 1015.36 1015.47 1015.63 1015.49 1015.42 1015.30 1015.38 1015.51 1015.27 1015.19 1015.00 1014.75 1014.67 1014.32 1013.90 1013.64 1013.48 1013.35 1013.24 1013.43 1013.79 1014.52 1015.02 1016.05 1016.54 1016.99 1017.40 1017.66 1018.08 1018.69 1019.19
1016.96 1016.74 1016.41 1016.16 1015.97 1015.92 1015.73 1015.74 1015.63 1015.64 1015.75 1015.82 1016.03 1016.18 1016.22 1016.26 1016.18 1016.10 1016.30 1016.34 1016.01 1015.81 1015.61 1015.38 1015.05 1014.68 1014.20 1014.06 1014.10 1014.02 1014.20 1014.09 1013.81 1013.93 1014.68 1015.18 1015.84 1016.18 1016.52 1016.80 1017.21 1017.77 1018.41
1017.30 1017.06 1016.65 1016.52 1016.35 1016.40 1016.40 1016.15 1015.99 1016.01 1016.19 1016.33 1016.51 1016.80 1016.99 1016.91 1016.85 1016.87 1016.84 1016.70 1016.61 1016.25 1015.96 1015.74 1015.40 1015.14 1014.80 1014.41 1014.39 1014.25 1014.22 1014.16 1013.94 1013.93 1014.07 1014.56 1014.85 1015.62 1016.04 1016.27 1016.64 1017.19 1017.78
Thickness
5810 5808 5807 5805 5802 5799 5796 5796 5795 5794 5792 5790 5792 5794 5794 5793 5789 5782 5776 5768 5763 5758 5753 5747 5739 5731 5726 5721 5713 5705 5694 5683 5668 5650 5634 5617 5604 5590 5582 5576 5577 5579 5582
5807 5809 5809 5808 5805 5804 5803 5802 5799 5797 5794 5793 5792 5792 5792 5792 5789 5783 5776 5772 5765 5758 5751 5745 5738 5731 5724 5719 5712 5704 5694 5684 5672 5656 5636 5621 5607 5595 5587 5580 5581 5579 5583
5808 5806 5804 5805 5805 5806 5808 5807 5805 5803 5799 5794 5793 5792 5792 5791 5789 5784 5779 5773 5766 5761 5754 5745 5736 5729 5723 5716 5710 5703 5695 5686 5676 5661 5643 5627 5612 5602 5593 5587 5588 5590 5590
5804 5805 5805 5802 5801 5804 5807 5809 5809 5809 5805 5801 5796 5794 5794 5791 5788 5785 5781 5773 5767 5763 5754 5745 5736 5728 5723 5716 5709 5703 5695 5687 5677 5662 5649 5636 5622 5609 5601 5598 5596 5594 5596
5792 5796 5798 5798 5802 5804 5806 5809 5810 5809 5806 5804 5800 5796 5794 5791 5789 5788 5784 5776 5767 5762 5752 5743 5736 5729 5722 5716 5711 5702 5696 5687 5677 5665 5653 5643 5632 5622 5611 5607 5602 5598 5601
5788 5791 5793 5793 5797 5803 5805 5805 5806 5808 5811 5810 5807 5802 5797 5796 5790 5789 5788 5779 5772 5763 5751 5742 5735 5728 5718 5714 5710 5704 5698 5689 5680 5670 5657 5654 5644 5632 5622 5613 5610 5607 5607
5780 5784 5787 5790 5794 5802 5804 5803 5806 5806 5807 5807 5808 5807 5801 5799 5794 5791 5789 5781 5773 5765 5753 5743 5735 5726 5718 5712 5707 5702 5697 5691 5683 5673 5665 5656 5651 5643 5634 5625 5617 5616 5616
5770 5774 5778 5787 5791 5797 5801 5802 5796 5795 5800 5800 5803 5805 5805 5802 5797 5793 5788 5781 5775 5768 5759 5745 5738 5726 5718 5711 5703 5699 5694 5689 5682 5674 5668 5661 5655 5650 5644 5636 5633 5628 5626
5759 5764 5770 5780 5783 5787 5793 5787 5787 5792 5793 5790 5789 5799 5803 5802 5796 5788 5781 5776 5769 5763 5759 5745 5738 5728 5720 5711 5704 5696 5691 5687 5681 5676 5669 5664 5658 5654 5648 5645 5638 5635 5634
5753 5757 5767 5773 5776 5785 5785 5783 5784 5788 5792 5787 5774 5778 5800 5801 5791 5782 5779 5773 5765 5757 5756 5745 5737 5731 5718 5711 5707 5699 5691 5686 5681 5675 5668 5663 5661 5656 5652 5647 5642 5639 5635
5758 5760 5764 5771 5778 5780 5779 5782 5782 5784 5782 5762 5755 5763 5786 5795 5786 5782 5781 5774 5769 5757 5756 5745 5737 5729 5719 5711 5706 5701 5694 5688 5681 5676 5670 5663 5660 5657 5656 5650 5643 5642 5638
5752 5754 5759 5764 5769 5771 5773 5780 5785 5780 5773 5754 5746 5757 5767 5787 5782 5779 5780 5778 5777 5763 5758 5749 5740 5727 5720 5710 5705 5700 5694 5686 5682 5677 5671 5666 5660 5656 5656 5653 5646 5642 5638
5739 5743 5749 5753 5759 5761 5766 5773 5781 5787 5775 5759 5752 5766 5776 5774 5774 5771 5771 5767 5771 5768 5766 5752 5742 5727 5716 5712 5705 5699 5694 5688 5681 5679 5673 5667 5660 5657 5654 5651 5645 5640 5637
5719 5727 5735 5741 5749 5753 5757 5763 5769 5768 5768 5767 5779 5775 5776 5772 5765 5767 5767 5763 5764 5764 5759 5747 5737 5729 5718 5713 5703 5699 5694 5689 5685 5680 5674 5666 5661 5656 5655 5652 5648 5640 5635
5701 5711 5718 5725 5732 5736 5733 5738 5745 5745 5749 5758 5755 5755 5759 5761 5758 5761 5766 5767 5765 5761 5751 5741 5732 5724 5717 5714 5705 5700 5696 5689 5684 5679 5673 5667 5662 5657 5654 5652 5648 5644 5636
5682 5691 5700 5708 5715 5720 5723 5726 5726 5729 5735 5740 5741 5742 5746 5748 5753 5756 5760 5761 5759 5755 5745 5738 5733 5725 5720 5717 5711 5699 5697 5690 5684 5678 5673 5668 5664 5659 5653 5651 5649 5646 5639
5661 5671 5680 5690 5698 5704 5711 5716 5718 5719 5723 5726 5730 5730 5733 5741 5747 5751 5753 5754 5751 5746 5743 5738 5732 5725 5720 5716 5713 5702 5696 5695 5685 5678 5675 5670 5664 5659 5653 5651 5649 5648 5644
5648 5655 5663 5672 5682 5688 5697 5706 5711 5714 5716 5717 5720 5724 5729 5733 5738 5742 5743 5745 5738 5739 5740 5734 5729 5722 5719 5714 5711 5704 5695 5692 5685 5679 5672 5667 5664 5660 5655 5651 5650 5650 5647
5626 5636 5646 5655 5664 5670 5679 5690 5698 5700 5701 5705 5710 5716 5720 5722 5727 5730 5736 5738 5733 5730 5727 5724 5722 5718 5713 5706 5705 5697 5696 5690 5685 5679 5670 5665 5662 5660 5655 5652 5651 5648 5646
5606 5613 5623 5635 5645 5653 5662 5671 5680 5685 5686 5688 5692 5695 5702 5710 5715 5718 5721 5723 5724 5722 5719 5720 5718 5715 5710 5704 5701 5696 5691 5686 5681 5677 5669 5667 5662 5659 5656 5653 5651 5649 5647
5586 5595 5604 5616 5625 5633 5642 5652 5660 5670 5675 5677 5677 5678 5685 5699 5702 5703 5708 5710 5710 5712 5714 5714 5710 5704 5704 5698 5694 5691 5689 5686 5682 5675 5669 5665 5662 5659 5656 5653 5649 5648 5646
5567 5576 5586 5596 5604 5612 5620 5630 5641 5649 5656 5661 5664 5669 5673 5682 5686 5689 5692 5695 5696 5697 5697 5697 5699 5701 5700 5695 5690 5689 5688 5685 5680 5675 5668 5664 5661 5656 5652 5650 5646 5645 5645
5555 5561 5570 5579 5588 5596 5605 5611 5621 5630 5638 5643 5648 5654 5659 5663 5668 5670 5672 5674 5678 5681 5683 5684 5687 5692 5691 5692 5692 5690 5689 5686 5680 5675 5667 5662 5661 5657 5655 5651 5647 5643 5643
5541 5549 5556 5564 5573 5582 5591 5598 5605 5613 5620 5625 5629 5634 5637 5642 5647 5653 5655 5657 5661 5664 5667 5671 5672 5677 5682 5685 5685 5686 5685 5683 5678 5671 5665 5659 5660 5657 5655 5653 5652 5647 5644
5531 5537 5545 5552 5561 5570 5579 5585 5593 5599 5604 5610 5615 5618 5623 5627 5631 5636 5638 5640 5646 5650 5654 5657 5663 5668 5675 5676 5676 5676 5674 5675 5674 5671 5663 5660 5659 5657 5656 5655 5652 5649 5644
5521 5527 5535 5542 5548 5554 5562 5572 5580 5587 5592 5596 5600 5603 5606 5611 5616 5620 5623 5627 5631 5637 5643 5646 5651 5656 5663 5668 5669 5671 5671 5669 5669 5668 5664 5660 5657 5655 5654 5654 5651 5648 5643